Accueil
METAR-TAF:

METAR-TAF

Aéroports :

Newton City/County Airport

Newton, Kansas, États-Unis

latitude: 38-03N, longitude: 097-17W, altitude: 467 m

Observation

Le bulletin a été fait il y a 16 minutes, à 02:56 UTC
Vent 10 kt de sud/sud-ouest
Température 0°C
Humidité 69%
Pression 1024 hPa
Visibilité: 16.1 km
Ciel clair

METAR: KEWK 110256Z AUTO 21010KT 10SM CLR 00/M05 A3024 RMK AO2 SLP255 T00001050 58001 FZRANO

Heure: 21:12 (03:12 UTC)


TAF: absent

Observations et prévisions météorologiques de plus de 4000 aéroports (messages METAR et TAF).

Les stations disponibles sont représentées par des disques jaunes et rouges sur la carte.

Passer la souris dessus pour voir le nom de la station.

Cliquer dessus pour voir les observations et prévisions météorologiques.

Pour changer de carte: cliquez sur les boutons verts avec une croix noire pour zoomer, sur le bouton vert avec un tiret pour effectuer un zoom arrière, ou sur les flèches vertes pour les cartes adjacentes.


METAR-TAF: